Carnival Spirit — 9HA3097 — position and weather

sailwx.info

Track history (hours):
 
Tides and Currents Weather Stations Pressure Air Temp Water Temp Dewpoint Dewpoint Depression Visibility Wind Speed Wind Dir Waves Ship Positions

Carnival Spirit

Last reported at 2017-Mar-25 09:33 UTC. Time now 2017-Mar-27 06:48 UTC.
Position S 22°23' E 166°38'.

Length 293 m; draft 8.3 m.

Type: Ship. MMSI: 229136000.

Date/timePositionNaut miles runAvg speedWind from/ knotsBaromVisibWave heightAir tempDewpointWater temp
2017-Mar-25 09:33S 22°23' E 166°38'1515.0
2017-Mar-25 08:33S 22°16' E 166°23'3 2.6
2017-Mar-25 07:33S 22°16' E 166°26'0 0.0
2017-Mar-25 06:33S 22°16' E 166°26'0 0.0
2017-Mar-25 05:33S 22°16' E 166°26'0 0.0
2017-Mar-25 04:33S 22°16' E 166°26'0 0.0
2017-Mar-25 03:30S 22°16' E 166°26'0 0.0
2017-Mar-25 02:33S 22°16' E 166°26'0 0.0
2017-Mar-25 01:33S 22°16' E 166°26'0 0.0
2017-Mar-25 00:33S 22°16' E 166°26'0 0.0
2017-Mar-24 23:33S 22°16' E 166°26'0 0.0
2017-Mar-24 22:33S 22°16' E 166°26'0 0.0
2017-Mar-24 21:33S 22°16' E 166°26'0 0.1
2017-Mar-24 20:33S 22°16' E 166°26'5 5.0
2017-Mar-24 19:33S 22°16' E 166°21'1312.5
2017-Mar-24 18:33S 22°25' E 166°11'8 8.1
2017-Mar-24 17:33S 22°31' E 166°05'8 7.9
2017-Mar-24 16:32S 22°39' E 166°05'54 2.5
2017-Mar-23 19:10S 22°32' E 167°03'1817.5
2017-Mar-23 18:09S 22°24' E 166°46'1118.4
2017-Mar-23 17:34S 22°27' E 166°35'1514.9
2017-Mar-23 16:33S 22°34' E 166°21'93019.3
2017-Mar-21 16:16S 32°39' E 153°03'1317.7
2017-Mar-21 15:33S 32°47' E 152°51'1717.4
2017-Mar-21 14:33S 32°59' E 152°36'1717.2
2017-Mar-21 13:33S 33°12' E 152°22'1918.6
2017-Mar-21 12:32S 33°22' E 152°03'1919.2
2017-Mar-21 11:33S 33°34' E 151°46'12 0.5
2017-Mar-20 10:33S 33°25' E 151°55'2120.7
2017-Mar-20 09:33S 33°10' E 152°12'2222.1
2017-Mar-20 08:33S 32°55' E 152°31'2323.5
2017-Mar-20 07:33S 32°38' E 152°51'94119.6
2017-Mar-18 07:33S 22°23' E 166°13'1313.3
2017-Mar-18 06:33S 22°15' E 166°25'1 1.1
2017-Mar-18 05:30S 22°16' E 166°26'0 0.0
2017-Mar-18 04:33S 22°16' E 166°26'0 0.0
2017-Mar-18 03:33S 22°16' E 166°26'0 0.0
2017-Mar-18 02:33S 22°16' E 166°26'0 0.0
2017-Mar-18 01:30S 22°16' E 166°26'0 0.0
2017-Mar-18 00:33S 22°16' E 166°26'0 0.0
2017-Mar-17 23:33S 22°16' E 166°26'0 0.0
2017-Mar-17 22:33S 22°16' E 166°26'0 0.0
2017-Mar-17 21:33S 22°16' E 166°26'0 0.4
2017-Mar-17 20:33S 22°16' E 166°26'7 6.9
2017-Mar-17 19:34S 22°21' E 166°31'  
Track history (hours):
 
Tides and Currents Weather Stations Pressure Air Temp Water Temp Dewpoint Dewpoint Depression Visibility Wind Speed Wind Dir Waves Ship Positions

Carnival Spirit

Last reported at 2017-Mar-25 09:33 UTC. Time now 2017-Mar-27 06:48 UTC.
Position S 22°23' E 166°38'.

Length 293 m; draft 8.3 m.

Type: Ship. MMSI: 229136000.

Date/timePositionNaut miles runAvg speedWind from/ knotsBaromVisibWave heightAir tempDewpointWater temp
2017-Mar-25 09:33S 22°23' E 166°38'1515.0
2017-Mar-25 08:33S 22°16' E 166°23'3 2.6
2017-Mar-25 07:33S 22°16' E 166°26'0 0.0
2017-Mar-25 06:33S 22°16' E 166°26'0 0.0
2017-Mar-25 05:33S 22°16' E 166°26'0 0.0
2017-Mar-25 04:33S 22°16' E 166°26'0 0.0
2017-Mar-25 03:30S 22°16' E 166°26'0 0.0
2017-Mar-25 02:33S 22°16' E 166°26'0 0.0
2017-Mar-25 01:33S 22°16' E 166°26'0 0.0
2017-Mar-25 00:33S 22°16' E 166°26'0 0.0
2017-Mar-24 23:33S 22°16' E 166°26'0 0.0
2017-Mar-24 22:33S 22°16' E 166°26'0 0.0
2017-Mar-24 21:33S 22°16' E 166°26'0 0.1
2017-Mar-24 20:33S 22°16' E 166°26'5 5.0
2017-Mar-24 19:33S 22°16' E 166°21'1312.5
2017-Mar-24 18:33S 22°25' E 166°11'8 8.1
2017-Mar-24 17:33S 22°31' E 166°05'8 7.9
2017-Mar-24 16:32S 22°39' E 166°05'54 2.5
2017-Mar-23 19:10S 22°32' E 167°03'1817.5
2017-Mar-23 18:09S 22°24' E 166°46'1118.4
2017-Mar-23 17:34S 22°27' E 166°35'1514.9
2017-Mar-23 16:33S 22°34' E 166°21'93019.3
2017-Mar-21 16:16S 32°39' E 153°03'1317.7
2017-Mar-21 15:33S 32°47' E 152°51'1717.4
2017-Mar-21 14:33S 32°59' E 152°36'1717.2
2017-Mar-21 13:33S 33°12' E 152°22'1918.6
2017-Mar-21 12:32S 33°22' E 152°03'1919.2
2017-Mar-21 11:33S 33°34' E 151°46'12 0.5
2017-Mar-20 10:33S 33°25' E 151°55'2120.7
2017-Mar-20 09:33S 33°10' E 152°12'2222.1
2017-Mar-20 08:33S 32°55' E 152°31'2323.5
2017-Mar-20 07:33S 32°38' E 152°51'94119.6
2017-Mar-18 07:33S 22°23' E 166°13'1313.3
2017-Mar-18 06:33S 22°15' E 166°25'1 1.1
2017-Mar-18 05:30S 22°16' E 166°26'0 0.0
2017-Mar-18 04:33S 22°16' E 166°26'0 0.0
2017-Mar-18 03:33S 22°16' E 166°26'0 0.0
2017-Mar-18 02:33S 22°16' E 166°26'0 0.0
2017-Mar-18 01:30S 22°16' E 166°26'0 0.0
2017-Mar-18 00:33S 22°16' E 166°26'0 0.0
2017-Mar-17 23:33S 22°16' E 166°26'0 0.0
2017-Mar-17 22:33S 22°16' E 166°26'0 0.0
2017-Mar-17 21:33S 22°16' E 166°26'0 0.4
2017-Mar-17 20:33S 22°16' E 166°26'7 6.9
2017-Mar-17 19:34S 22°21' E 166°31'  

Dump ship's entire track history